EW9904 Weather Reports


Display with metric or nautical units.
time (UTC)temp
F
wind
direction
speed
MPH
gust
MPH
rain 1hr
in
rain 24hr
in
rain mn
in
humidity
%
barometer
mb
20260831151501 82 47 3.0 7.0 0.00 0.00 0.00 75 1019.4
20260831151002 83 97 3.0 7.0 0.00 0.00 0.00 75 1019.3
20260831150502 83 85 3.0 6.0 0.00 0.00 0.00 77 1019.3
20260831150005 83 80 3.0 6.0 0.00 0.00 0.00 76 1019.2
20260831145502 82 90 3.0 7.0 0.00 0.00 0.00 77 1019.2
20260831145003 82 90 3.0 8.0 0.00 0.00 0.00 76 1019.2
20260831144502 82 100 3.0 8.0 0.00 0.00 0.00 74 1019.2
20260831144003 82 82 3.0 8.0 0.00 0.00 0.00 76 1019.1
20260831143003 82 82 2.0 6.0 0.00 0.00 0.00 78 1019.2
20260831142502 82 129 2.0 5.0 0.00 0.00 0.00 78 1019.1
20260831142002 81 53 3.0 7.0 0.00 0.00 0.00 77 1019.1
20260831141501 81 87 3.0 7.0 0.00 0.00 0.00 78 1019.1
20260831141003 81 96 2.0 4.0 0.00 0.00 0.00 78 1019.1
20260831140502 81 101 2.0 4.0 0.00 0.00 0.00 79 1019.1
20260831135502 80 109 3.0 7.0 0.00 0.00 0.00 81 1019.2
20260831135002 80 121 3.0 7.0 0.00 0.00 0.00 80 1019.3
20260831134500 80 98 2.0 6.0 0.00 0.00 0.00 81 1019.4
20260831134001 80 92 2.0 4.0 0.00 0.00 0.00 81 1019.4
20260831133506 80 99 2.0 4.0 0.00 0.00 0.00 83 1019.3
20260831133001 80 98 2.0 4.0 0.00 0.00 0.00 83 1019.3
20260831132501 79 103 2.0 6.0 0.00 0.00 0.00 83 1019.4
20260831132002 80 102 2.0 6.0 0.00 0.00 0.00 84 1019.2
20260831131501 80 84 2.0 6.0 0.00 0.00 0.00 85 1019.2
20260831131001 79 86 2.0 6.0 0.00 0.00 0.00 86 1019.2
20260831130502 79 248 2.0 4.0 0.00 0.00 0.00 88 1019.3
20260831130003 79 252 2.0 4.0 0.00 0.00 0.00 89 1019.4
20260831125500 79 252 1.0 4.0 0.00 0.00 0.00 90 1019.3
20260831125001 78 252 1.0 3.0 0.00 0.00 0.00 91 1019.2
20260831124459 78 252 1.0 3.0 0.00 0.00 0.00 92 1019.2
20260831124001 77 252 0.0 2.0 0.00 0.00 0.00 93 1019.2
20260831123501 77 252 0.0 2.0 0.00 0.00 0.00 93 1019.1
20260831123002 76 252 1.0 3.0 0.00 0.00 0.00 93 1019.2
20260831122500 76 252 1.0 3.0 0.00 0.00 0.00 93 1019.1
20260831122002 76 252 0.0 2.0 0.00 0.00 0.00 93 1019.1
20260831121001 75 252 0.0 1.0 0.00 0.00 0.00 93 1018.9
20260831120501 75 252 0.0 1.0 0.00 0.00 0.00 93 1018.9
20260831120005 75 252 0.0 2.0 0.00 0.00 0.00 93 1019.0
20260831115500 75 252 1.0 2.0 0.00 0.00 0.00 94 1019.0
20260831114501 74 252 0.0 1.0 0.00 0.00 0.00 94 1019.0
20260831114001 74 252 0.0 1.0 0.00 0.00 0.00 94 1019.0
20260831113003 74 252 0.0 1.0 0.00 0.00 0.00 94 1019.1
20260831112500 74 252 0.0 1.0 0.00 0.00 0.00 94 1019.0
20260831111501 74 252 0.0 1.0 0.00 0.00 0.00 94 1018.9
20260831110000 73 252 0.0 1.0 0.00 0.00 0.00 94 1018.7
20260831105500 73 252 0.0 1.0 0.00 0.00 0.00 94 1018.7
20260831105000 73 252 0.0 2.0 0.00 0.00 0.00 94 1018.6
20260831104000 73 252 1.0 2.0 0.00 0.00 0.00 94 1018.6
20260831103459 73 252 0.0 1.0 0.00 0.00 0.00 94 1018.4
20260831103000 73 252 0.0 1.0 0.00 0.00 0.00 94 1018.3
20260831102459 73 252 0.0 1.0 0.00 0.00 0.00 94 1018.2
20260831101500 72 252 1.0 2.0 0.00 0.00 0.00 94 1018.2
20260831101000 73 252 0.0 1.0 0.00 0.00 0.00 94 1018.1
20260831100500 73 252 0.0 1.0 0.00 0.00 0.00 93 1018.0
20260831100000 73 252 0.0 1.0 0.00 0.00 0.00 93 1018.1
20260831095500 73 252 0.0 0.0 0.00 0.00 0.00 94 1018.1
20260831095000 73 252 0.0 0.0 0.00 0.00 0.00 94 1018.0
20260831094459 73 252 0.0 1.0 0.00 0.00 0.00 93 1018.1
20260831094000 73 252 0.0 1.0 0.00 0.00 0.00 93 1018.0
20260831093459 73 252 0.0 1.0 0.00 0.00 0.00 94 1017.9
20260831092959 73 252 0.0 1.0 0.00 0.00 0.00 93 1018.0
20260831092500 73 252 0.0 2.0 0.00 0.00 0.00 94 1018.0
20260831092005 73 252 0.0 2.0 0.00 0.00 0.00 93 1017.9
20260831091500 73 252 0.0 1.0 0.00 0.00 0.00 93 1017.9
20260831091000 73 252 0.0 0.0 0.00 0.00 0.00 94 1018.0
20260831090500 73 252 0.0 1.0 0.00 0.00 0.00 94 1018.0
20260831090000 73 252 1.0 2.0 0.00 0.00 0.00 93 1018.0
20260831085459 73 252 1.0 2.0 0.00 0.00 0.00 94 1018.0
20260831085004 73 252 0.0 1.0 0.00 0.00 0.00 93 1017.9
20260831084500 73 252 1.0 2.0 0.00 0.00 0.00 93 1017.9
20260831084000 73 252 1.0 3.0 0.00 0.00 0.00 93 1017.8
20260831083459 73 252 0.0 3.0 0.00 0.00 0.00 93 1017.8
20260831083001 73 252 0.0 2.0 0.00 0.00 0.00 93 1017.9
20260831082500 73 252 0.0 2.0 0.00 0.00 0.00 93 1017.8
20260831082001 73 252 0.0 1.0 0.00 0.00 0.00 93 1017.9
20260831081500 73 252 0.0 1.0 0.00 0.00 0.00 93 1017.9
20260831081001 73 252 0.0 0.0 0.00 0.00 0.00 93 1018.0
20260831080459 73 252 0.0 0.0 0.00 0.00 0.00 93 1018.0
20260831080000 74 252 0.0 2.0 0.00 0.00 0.00 93 1018.0
20260831075500 74 252 1.0 2.0 0.00 0.00 0.00 93 1018.0
20260831075002 74 252 0.0 1.0 0.00 0.00 0.00 93 1018.1
20260831074500 74 252 0.0 2.0 0.00 0.00 0.00 93 1018.0
20260831074004 74 252 0.0 2.0 0.00 0.00 0.00 93 1018.0
20260831073500 74 252 0.0 2.0 0.00 0.00 0.00 93 1018.0
20260831073002 74 252 0.0 3.0 0.00 0.00 0.00 93 1018.1
20260831072002 74 252 0.0 2.0 0.00 0.00 0.00 93 1018.0
20260831071500 74 252 0.0 2.0 0.00 0.00 0.00 93 1018.1
20260831070501 74 252 0.0 2.0 0.00 0.00 0.00 93 1018.2
20260831070000 73 252 0.0 2.0 0.00 0.00 0.00 93 1018.2
20260831065459 73 252 0.0 1.0 0.00 0.00 0.00 93 1018.2
20260831065000 73 252 0.0 1.0 0.00 0.00 0.00 93 1018.2
20260831064500 73 252 0.0 1.0 0.00 0.00 0.00 93 1018.2
20260831064000 74 252 0.0 1.0 0.00 0.00 0.00 93 1018.3
20260831063458 74 252 0.0 1.0 0.00 0.00 0.00 92 1018.2
20260831063000 74 252 0.0 1.0 0.00 0.00 0.00 92 1018.3
20260831062500 74 252 0.0 1.0 0.00 0.00 0.00 92 1018.3
20260831062001 74 252 0.0 2.0 0.00 0.00 0.00 92 1018.3
20260831061459 74 252 0.0 2.0 0.00 0.00 0.00 92 1018.3
20260831060459 74 252 0.0 3.0 0.00 0.00 0.00 92 1018.4
20260831060000 74 252 0.0 2.0 0.00 0.00 0.00 92 1018.4
20260831055458 74 252 0.0 2.0 0.00 0.00 0.00 92 1018.4
20260831055000 74 252 0.0 2.0 0.00 0.00 0.00 92 1018.4
20260831054459 74 252 0.0 1.0 0.00 0.00 0.00 92 1018.4
20260831054000 74 252 0.0 1.0 0.00 0.00 0.00 92 1018.4
20260831053459 74 252 0.0 1.0 0.00 0.00 0.00 92 1018.4
20260831052959 74 252 0.0 2.0 0.00 0.00 0.00 92 1018.3
20260831052500 74 252 1.0 3.0 0.00 0.00 0.00 91 1018.3
20260831051959 74 252 0.0 3.0 0.00 0.00 0.00 91 1018.3
20260831051459 74 252 0.0 2.0 0.00 0.00 0.00 91 1018.2
20260831051000 74 252 0.0 1.0 0.00 0.00 0.00 91 1018.3
20260831050500 74 252 0.0 3.0 0.00 0.00 0.00 91 1018.3
20260831050004 74 252 1.0 3.0 0.00 0.00 0.00 91 1018.4
20260831045502 74 252 1.0 3.0 0.00 0.00 0.00 91 1018.4
20260831045002 74 252 1.0 3.0 0.00 0.00 0.00 91 1018.3
20260831044503 74 252 1.0 3.0 0.00 0.00 0.00 91 1018.4
20260831044002 74 252 0.0 3.0 0.00 0.00 0.00 91 1018.4
20260831043503 74 252 1.0 3.0 0.00 0.00 0.00 91 1018.4
20260831043003 74 252 1.0 2.0 0.00 0.00 0.00 91 1018.5
20260831042003 74 252 1.0 3.0 0.00 0.00 0.00 90 1018.4
20260831041504 75 252 1.0 3.0 0.00 0.00 0.00 90 1018.4
20260831041002 74 252 1.0 3.0 0.00 0.00 0.00 90 1018.5
20260831040005 74 250 0.0 2.0 0.00 0.00 0.00 90 1018.6
20260831035502 74 250 1.0 3.0 0.00 0.00 0.00 90 1018.7
20260831035003 74 250 1.0 3.0 0.00 0.00 0.00 90 1018.7
20260831034503 74 250 0.0 2.0 0.00 0.00 0.00 90 1018.7
20260831033503 74 250 1.0 2.0 0.00 0.00 0.00 90 1018.8
20260831033006 75 250 1.0 5.0 0.00 0.00 0.00 90 1018.9
20260831032503 74 250 1.0 5.0 0.00 0.00 0.00 90 1018.9
20260831032004 74 208 1.0 2.0 0.00 0.00 0.00 89 1018.8
20260831031504 75 208 1.0 2.0 0.00 0.00 0.00 89 1018.9
20260831031005 75 208 1.0 3.0 0.00 0.00 0.00 89 1018.9
20260831030503 74 208 1.0 3.0 0.00 0.00 0.00 89 1019.0
20260831030005 74 208 1.0 3.0 0.00 0.00 0.00 89 1019.0
20260831025005 74 208 0.0 4.0 0.00 0.00 0.00 89 1019.1
20260831024503 74 208 0.0 1.0 0.00 0.00 0.00 89 1019.2
20260831024004 74 208 0.0 2.0 0.00 0.00 0.00 89 1019.4
20260831023503 74 208 0.0 2.0 0.00 0.00 0.00 89 1019.4
20260831022504 75 208 1.0 2.0 0.00 0.00 0.00 88 1019.4
20260831021503 75 208 1.0 4.0 0.00 0.00 0.00 88 1019.3
20260831021003 75 208 1.0 4.0 0.00 0.00 0.00 88 1019.2
20260831020502 75 208 1.0 3.0 0.00 0.00 0.00 88 1019.1
20260831015503 75 208 1.0 3.0 0.00 0.00 0.00 88 1019.2
20260831015004 75 208 1.0 3.0 0.00 0.00 0.00 88 1019.2
20260831014504 76 208 1.0 3.0 0.00 0.00 0.00 88 1019.3
20260831014004 76 208 1.0 3.0 0.00 0.00 0.00 88 1019.3
20260831013505 76 208 1.0 3.0 0.00 0.00 0.00 87 1019.3
20260831013005 76 208 1.0 3.0 0.00 0.00 0.00 87 1019.4
20260831012503 76 208 0.0 3.0 0.00 0.00 0.00 87 1019.4
20260831012004 76 208 1.0 2.0 0.00 0.00 0.00 87 1019.4
20260831011503 76 208 1.0 3.0 0.00 0.00 0.00 87 1019.5
20260831011004 76 209 1.0 4.0 0.00 0.00 0.00 86 1019.6
20260831010504 76 208 1.0 4.0 0.00 0.00 0.00 86 1019.5
20260831010005 76 208 2.0 5.0 0.00 0.00 0.00 86 1019.4
20260831005501 77 207 1.0 5.0 0.00 0.00 0.00 85 1019.3
20260831005003 77 206 1.0 5.0 0.00 0.00 0.00 85 1019.2
20260831004502 77 206 1.0 5.0 0.00 0.00 0.00 85 1019.2
20260831004003 77 206 2.0 5.0 0.00 0.00 0.00 85 1019.2
20260831003501 77 232 2.0 6.0 0.00 0.00 0.00 85 1019.1
20260831003004 77 232 2.0 7.0 0.00 0.00 0.00 85 1019.1
20260831002502 77 213 2.0 5.0 0.00 0.00 0.00 84 1019.1
20260831002003 77 218 2.0 9.0 0.00 0.00 0.00 85 1019.0
20260831001502 77 250 2.0 9.0 0.00 0.00 0.00 84 1018.9
20260831001002 78 198 2.0 7.0 0.00 0.00 0.00 84 1019.0
20260831000501 78 232 2.0 7.0 0.00 0.00 0.00 84 1019.0
20260830235003 78 194 3.0 6.0 0.00 0.00 0.00 83 1018.9
20260830234503 79 182 2.0 6.0 0.00 0.00 0.00 83 1018.9
20260830234002 79 151 2.0 9.0 0.00 0.00 0.00 82 1018.9
20260830233004 79 189 2.0 7.0 0.00 0.00 0.00 81 1018.9
20260830232502 80 178 2.0 8.0 0.00 0.00 0.00 81 1018.9
20260830232003 80 211 2.0 8.0 0.00 0.00 0.00 80 1019.0
20260830231503 80 219 2.0 5.0 0.00 0.00 0.00 78 1019.0
20260830231003 80 255 1.0 5.0 0.00 0.00 0.00 77 1019.0
20260830230502 80 257 1.0 2.0 0.00 0.00 0.00 75 1019.0
20260830230005 80 257 1.0 2.0 0.00 0.00 0.00 75 1018.9
20260830225502 81 257 1.0 4.0 0.00 0.00 0.00 75 1018.8
20260830225003 81 258 1.0 2.0 0.00 0.00 0.00 75 1018.8
20260830224012 81 258 1.0 2.0 0.00 0.00 0.00 73 1018.8
20260830223004 82 258 1.0 4.0 0.00 0.00 0.00 71 1018.8
20260830222002 83 257 1.0 3.0 0.00 0.00 0.00 69 1018.7
20260830221503 83 257 1.0 7.0 0.00 0.00 0.00 69 1018.6
20260830221003 84 259 1.0 7.0 0.00 0.00 0.00 68 1018.5
20260830220502 84 281 1.0 4.0 0.00 0.00 0.00 67 1018.4
20260830220007 83 281 1.0 4.0 0.00 0.00 0.00 68 1018.4
20260830215501 83 281 1.0 3.0 0.00 0.00 0.00 69 1018.4
20260830215003 84 281 2.0 4.0 0.00 0.00 0.00 66 1018.4
20260830214002 85 281 2.0 11.0 0.00 0.00 0.00 64 1018.4
20260830213502 85 267 2.0 6.0 0.00 0.00 0.00 66 1018.4
20260830213002 85 271 2.0 10.0 0.00 0.00 0.00 65 1018.4
20260830212505 85 258 2.0 10.0 0.00 0.00 0.00 64 1018.4
20260830212003 85 273 2.0 8.0 0.00 0.00 0.00 65 1018.4
20260830211502 86 273 2.0 7.0 0.00 0.00 0.00 65 1018.5
20260830211003 86 265 2.0 7.0 0.00 0.00 0.00 65 1018.4
20260830210501 86 242 2.0 7.0 0.00 0.00 0.00 67 1018.4
20260830210006 86 290 3.0 7.0 0.00 0.00 0.00 64 1018.4
20260830205502 86 258 3.0 8.0 0.00 0.00 0.00 62 1018.4
20260830205002 86 265 2.0 6.0 0.00 0.00 0.00 63 1018.4
20260830204003 86 259 3.0 9.0 0.00 0.00 0.00 62 1018.5
20260830203002 87 350 3.0 9.0 0.00 0.00 0.00 64 1018.5
20260830202502 87 286 3.0 9.0 0.00 0.00 0.00 62 1018.6
20260830201501 87 231 2.0 7.0 0.00 0.00 0.00 64 1018.6
20260830201004 87 295 2.0 5.0 0.00 0.00 0.00 64 1018.7
20260830200503 87 268 3.0 9.0 0.00 0.00 0.00 65 1018.7
20260830200006 86 261 3.0 10.0 0.00 0.00 0.00 66 1018.8
20260830195503 86 240 3.0 10.0 0.00 0.00 0.00 64 1018.9
20260830194503 87 211 2.0 6.0 0.00 0.00 0.00 64 1018.9
20260830193505 87 263 2.0 7.0 0.00 0.00 0.00 68 1019.0
20260830193005 87 157 2.0 7.0 0.00 0.00 0.00 66 1019.0
20260830192502 87 345 2.0 7.0 0.00 0.00 0.00 69 1019.1
20260830192005 87 153 3.0 6.0 0.00 0.00 0.00 68 1019.3
20260830191504 87 190 3.0 6.0 0.00 0.00 0.00 67 1019.4
20260830191003 87 206 3.0 8.0 0.00 0.00 0.00 67 1019.4
20260830190501 86 269 2.0 8.0 0.00 0.00 0.00 67 1019.5
20260830185502 86 301 3.0 9.0 0.00 0.00 0.00 68 1019.7
20260830185002 87 320 2.0 10.0 0.00 0.00 0.00 67 1019.9
20260830184501 86 236 3.0 8.0 0.00 0.00 0.00 70 1019.9
20260830183502 87 261 3.0 13.0 0.00 0.00 0.00 64 1020.0
20260830183002 87 182 2.0 7.0 0.00 0.00 0.00 69 1020.1
20260830182503 87 317 2.0 7.0 0.00 0.00 0.00 68 1020.2
20260830182003 87 328 2.0 7.0 0.00 0.00 0.00 66 1020.2
20260830181501 86 250 3.0 7.0 0.00 0.00 0.00 68 1020.2
20260830180502 86 271 3.0 8.0 0.00 0.00 0.00 68 1020.3
20260830180006 86 257 2.0 7.0 0.00 0.00 0.00 68 1020.3
20260830175503 86 192 2.0 6.0 0.00 0.00 0.00 67 1020.5
20260830175003 87 192 2.0 6.0 0.00 0.00 0.00 67 1020.6
20260830174503 86 323 2.0 8.0 0.00 0.00 0.00 67 1020.6
20260830174004 86 290 2.0 5.0 0.00 0.00 0.00 65 1020.7
20260830173504 86 316 2.0 6.0 0.00 0.00 0.00 70 1020.7
20260830173004 86 315 2.0 6.0 0.00 0.00 0.00 70 1020.7
20260830172502 86 264 2.0 8.0 0.00 0.00 0.00 67 1020.8
20260830171503 86 261 3.0 7.0 0.00 0.00 0.00 70 1020.9
20260830171003 85 274 2.0 7.0 0.00 0.00 0.00 68 1021.0
20260830170006 85 300 2.0 6.0 0.00 0.00 0.00 69 1021.2
20260830165504 85 184 3.0 6.0 0.00 0.00 0.00 67 1021.2
20260830165002 85 269 2.0 4.0 0.00 0.00 0.00 70 1021.3
20260830164503 84 223 2.0 9.0 0.00 0.00 0.00 66 1021.2
20260830164004 85 223 2.0 9.0 0.00 0.00 0.00 66 1021.2
20260830163004 84 290 2.0 7.0 0.00 0.00 0.00 66 1021.2
20260830162501 84 223 2.0 5.0 0.00 0.00 0.00 69 1021.3
20260830162004 83 269 3.0 6.0 0.00 0.00 0.00 69 1021.4
20260830161503 83 180 3.0 6.0 0.00 0.00 0.00 67 1021.4
20260830161004 83 265 2.0 8.0 0.00 0.00 0.00 70 1021.4
20260830160003 83 238 2.0 7.0 0.00 0.00 0.00 71 1021.6
20260830155001 83 259 2.0 6.0 0.00 0.00 0.00 73 1021.7
20260830154501 83 218 2.0 6.0 0.00 0.00 0.00 69 1021.8
20260830154002 83 219 2.0 6.0 0.00 0.00 0.00 70 1021.8
20260830153001 82 211 2.0 6.0 0.00 0.00 0.00 71 1021.8
20260830152500 82 190 1.0 5.0 0.00 0.00 0.00 73 1021.8
20260830152003 82 187 2.0 5.0 0.00 0.00 0.00 71 1021.8